Terminal Aerodrome Forecast
Issued by NWS Atlanta, GA

Home | Current Version | Previous Version | Text Only | Print | Product List | Glossary On
Versions: 1 2 3 4 5 6 7 8 9 10 11 12 13 14 15 16 17 18 19 20 21 22 23 24 25 26 27 28 29 30 31 32 33 34
329
FTAK31 PAJN 232334
TAFAHN
TAF
PAHN 232334Z 2400/2424 31010KT P6SM -SHRA OVC060
     FM240300 31006KT P6SM -RA OVC025
     FM240900 32008KT P6SM FEW250
     FM241900 29012KT P6SM SKC
      AMD LTD TO CLD VIS AND WIND=

USA.gov is the U.S. government's official web portal to all federal, state and local government web resources and services.